Home   Weather   Boston   Past weeks

Flag for USA Past Weather in Boston, Massachusetts, USA — Yesterday and Last 2 Weeks

Now
74 °F

Passing clouds.


Feels Like: 73 °F
Forecast: 71 / 84 °F
Wind: 12 mph from Southwest

Location: Logan International Airport

Current Time: Jul 17, 2018 at 5:52:58 am

Latest Report: Jul 17, 2018 at 4:54 am


Visibility: 8 mi

Pressure: 29.86 "Hg

Humidity: 88%

Dew Point: 70 °F

Location of BostonLocation

Past Weather in Boston — Graph

°F

Boston Temperature Yesterday

Maximum temperature yesterday: 76 °F (at 10:54 pm)
Minimum temperature yesterday: 68 °F (at 2:54 am)
Average temperature yesterday: 71 °F

High & Low Weather Summary for the Past Weeks

 TemperatureHumidityPressure
High97 °F (Jul 3, 1:54 pm)96% (Jul 16, 2:54 am)30.37 "Hg (Jul 16, 2:54 am)
Low62 °F (Jul 7, 3:54 am)27% (Jul 10, 3:54 pm)29.79 "Hg (Jul 10, 5:54 pm)
Average75 °F66%30.10 "Hg
* Reported Jul 2 2:54 am — Jul 17 2:54 am, Boston. Weather by CustomWeather, © 2018

Note: Actual official high and low records may vary slightly from our data, if they occured in-between our weather recording intervals... More about our weather records

Advertising

Boston Weather History for the Previous 24 Hours

Scroll right to see more
 ConditionsComfort  
Time TempWeatherWind HumidityBarometerVisibility
2:54 am
Tue, Jul 17
74 °FPartly cloudy.7 mph88%29.88 "Hg7 mi
12:54 am75 °FPartly cloudy.8 mph85%29.91 "Hg7 mi
11:54 pm
Mon, Jul 16
75 °FPassing clouds.8 mph88%29.92 "Hg7 mi
10:54 pm76 °FPassing clouds.10 mph82%29.93 "Hg9 mi
9:54 pm71 °FPassing clouds.3 mph87%29.93 "Hg10 mi
8:54 pm71 °FPartly cloudy.5 mph87%29.92 "Hg10 mi
7:54 pm71 °FBroken clouds.6 mph87%29.92 "Hg9 mi
6:54 pm72 °FPartly sunny.7 mph84%29.93 "Hg8 mi
5:54 pm72 °FBroken clouds.9 mph84%29.93 "Hg7 mi
4:54 pm71 °FBroken clouds.9 mph87%29.94 "Hg6 mi
3:54 pm71 °FBroken clouds.9 mph87%29.96 "Hg6 mi
3:12 pm71 °FBroken clouds.12 mph87%29.96 "Hg6 mi
2:54 pm72 °FBroken clouds.9 mph84%29.97 "Hg1 mi
1:54 pm71 °FFog.12 mph87%29.98 "Hg3 mi
12:54 pm72 °FFog.12 mph84%29.99 "Hg3 mi
12:29 pm72 °FFog.10 mph84%30.00 "Hg3 mi
12:22 pm72 °FFog.10 mph84%30.00 "Hg3 mi
11:54 am72 °FFog.9 mph84%30.00 "Hg1 mi
11:39 am72 °FFog.10 mph84%30.00 "Hg1 mi
11:04 am72 °FFog.8 mph84%30.01 "Hg1 mi
10:54 am73 °FFog.8 mph81%30.01 "Hg1 mi
10:17 am71 °FFog.8 mph87%30.01 "Hg1 mi
10:01 am71 °FFog.9 mph87%30.01 "Hg1 mi
8:54 am72 °FFog.5 mph84%30.00 "Hg1 mi
8:32 am71 °FFog.6 mph87%30.00 "Hg1 mi
7:54 am70 °FFog.5 mph90%30.00 "Hg1 mi
7:34 am69 °FFog.5 mph93%30.00 "Hg1 mi
7:02 am69 °FFog.7 mph93%29.99 "Hg1 mi
6:21 am69 °FFog.No wind93%29.98 "Hg0 mi
5:54 am68 °FFog.No wind96%29.98 "Hg0 mi
5:35 am68 °FFog.5 mph96%29.98 "Hg0 mi
Weather by CustomWeather, © 2018

See weather overview